Location: Combronde
(45.9814°N, 3.0877°E)
Time: 08:16:35
(UTC+00:00)

Daily predictions for brighter satellites

Satellite Brightness Start Highest point End
(mag) Time Altitude Azimuth Time Altitude Azimuth Time Altitude Azimuth
SJ-6B 3.6 18:52:51 10° SE 18:56:36 35° ENE 19:00:24 10° N
Cosmos 1953 Rocket 4.4 18:53:33 10° N 18:57:35 32° ENE 19:01:36 10° SE
STARLINK-60 3.7 18:54:47 10° SSW 18:57:48 35° SE 19:00:50 10° ENE
ATLAS 5 CENTAUR R/B 2.7 18:55:20 10° SSE 18:58:28 21° ESE 19:01:49 10° ENE
Cosmos 1606 Rocket 4.2 18:54:28 10° SSE 18:58:31 36° E 19:02:37 10° NNE
Cosmos 2074 Rocket 4.1 18:53:00 10° N 18:59:14 59° ENE 19:05:25 10° SSE
ADEOS Rocket 3.8 18:55:49 10° N 19:02:06 60° WNW 19:07:47 10° SSW
Meteor 1-16 Rocket 4.3 18:57:44 10° S 19:02:57 53° E 19:08:22 10° NNE
Cosmos 1818 3.6 18:57:52 10° SSW 19:03:14 68° ESE 19:08:40 10° NE
Abrixas rocket 2.5 19:05:43 10° WNW 19:08:36 50° N 19:11:30 10° E
ISS -1.1 19:06:52 10° W 19:08:54 15° SW 19:10:58 10° S
Cosmos 1943 Rocket 3.4 19:06:24 10° NW 19:11:37 43° WSW 19:16:52 10° S
NOSS 3-4 (A) 4.0 19:06:16 10° NW 19:13:10 63° NE 19:20:34 11° SE
Meteor 1-21 Rocket 4.4 19:07:41 10° NNW 19:13:14 77° W 19:18:45 10° S
NOSS 3-4 (C) 4.0 19:06:23 10° NW 19:13:16 63° NE 19:20:39 11° SE
FALCON 9 DEB 4.3 19:14:58 10° S 19:17:50 24° SE 19:20:15 12° E
SL-4 R/B 1.4 19:15:05 10° WSW 19:18:29 87° SSE 19:21:56 10° ENE
Cosmos 1300 4.4 19:17:23 13° ESE 19:18:29 15° E 19:20:39 10° NE
Cosmos 2369 Rocket 3.2 19:15:49 10° NW 19:21:16 49° WSW 19:26:40 10° S
NOSS 3-3 (A) 4.5 19:15:59 10° SW 19:21:51 65° NW 19:28:31 10° NE
NOSS 3-3 (C) 4.4 19:16:05 10° SW 19:21:57 66° NW 19:28:36 10° NE
MOS 1 4.3 19:16:31 10° SSE 19:22:09 83° ENE 19:27:52 10° NNW
Cosmos 1340 Rocket 3.6 19:19:16 10° SSE 19:22:52 32° E 19:26:28 10° NNE
STARLINK-1201 4.4 19:19:58 10° NW 19:22:55 30° NNE 19:25:27 13° ENE
MOS 1 Rocket 4.3 19:18:31 10° NNE 19:23:21 32° E 19:28:11 10° SSE
STARLINK-67 3.1 19:23:14 10° NW 19:25:42 43° NNE 19:27:10 20° E
CZ-2C R/B 4.1 19:21:20 10° NNE 19:25:50 44° E 19:30:14 10° S
H-2A R/B 2.2 19:20:41 10° SSE 19:25:54 81° WSW 19:31:01 10° NNW
Cosmos 1703 3.2 19:22:00 10° N 19:25:57 66° E 19:29:53 10° SSE
Cosmos 1328 3.8 19:22:36 10° N 19:26:36 64° E 19:30:34 10° SSE
CZ-2C R/B 2.9 19:23:48 10° SSE 19:28:40 83° WSW 19:33:27 10° NNW
Cosmos 1437 3.6 19:29:00 10° NNW 19:31:57 47° W 19:34:51 10° S
STARLINK-52 3.7 19:33:29 10° SSW 19:36:21 30° SE 19:37:28 24° E
Cosmos 1908 3.1 19:32:39 10° S 19:36:29 73° E 19:40:23 10° NNE
SL-08 RB Rocket 3.7 19:32:09 10° SSE 19:36:41 80° ENE 19:41:19 10° N
Resurs 1-3 3.8 19:37:17 15° SE 19:40:46 54° ENE 19:45:04 10° N
USA 234 3.9 19:37:38 10° ENE 19:43:14 30° SE 19:48:49 10° S
SeaSat 1 4.2 19:40:01 10° NNE 19:44:32 36° NW 19:49:00 10° WSW
ATLAS 2AS CENTAUR R/B 2.9 19:37:56 10° NW 19:45:35 86° SW 19:51:22 16° SE
STARLINK-1228 3.3 19:43:09 10° NW 19:46:00 47° NNE 19:47:06 30° E
Cosmos 1943 4.0 19:41:03 10° SW 19:46:35 55° WNW 19:52:12 10° NNE
Ariane Rocket 4.1 19:42:04 10° S 19:46:54 45° W 19:51:46 10° NNW
Cosmos 1953 4.4 19:44:37 10° SW 19:48:08 30° WNW 19:51:43 10° N
CZ-4C R/B 4.5 19:45:19 10° NNW 19:50:15 21° NNE 19:55:46 10° ENE
Cosmos 1140 Rocket 3.5 19:46:09 10° S 19:51:14 60° ESE 19:56:20 10° NNE
Cosmos 1726 3.9 19:48:14 10° SW 19:51:41 35° WNW 19:55:09 10° N
Cosmos 1656 Rocket 4.3 19:49:29 10° NW 19:54:59 54° WSW 20:00:22 10° S
Cosmos 2341 Rocket 4.2 19:49:02 10° N 19:55:19 56° ENE 19:59:56 19° SSE
Cosmos 1190 Rocket 3.9 19:52:22 10° SSW 19:57:39 78° ESE 20:02:58 10° NNE
Cosmos 2058 Rocket 3.0 19:53:53 10° S 19:58:23 79° E 20:02:55 10° N
Spot 2 Rocket 4.3 19:56:54 25° ESE 19:58:55 34° ENE 20:03:30 10° N
Meteor 1-11 4.3 19:53:22 10° NNW 19:59:09 83° W 20:04:50 10° S
MetOp-A 4.1 19:55:37 11° SSE 20:00:46 86° WSW 20:06:11 10° NNW
DMSP B5D2-2 4.0 19:55:59 10° NNE 20:01:13 71° ESE 20:06:26 10° S
COSMOS 2455 2.9 19:55:44 10° NNW 20:01:46 68° NE 20:05:11 27° SE
CZ-2C R/B 2.5 19:56:43 10° NNE 20:01:51 62° E 20:07:00 10° S
Cosmos 614 Rocket 4.3 19:58:27 10° SSW 20:03:39 68° WNW 20:08:52 10° NNE
Cosmos 1726 Rocket 4.3 20:02:03 10° SSW 20:06:22 55° WNW 20:10:46 10° N
ARGOS 4.2 20:02:10 10° S 20:07:17 43° W 20:12:25 10° NNW
Iridium 2 4.5 20:07:49 32° E 20:07:49 32° E 20:11:02 10° NNE
Cosmos 2218 Rocket 4.4 20:03:41 10° N 20:09:38 44° ENE 20:12:17 29° SE
USA 186 4.4 20:07:07 10° SW 20:09:40 20° W 20:12:09 10° NW
Resurs 01 Rocket 1.5 20:08:30 29° SSE 20:10:43 77° ENE 20:15:08 10° N
ERBS 3.8 20:08:44 10° NNW 20:11:39 26° NNE 20:12:22 24° NE
SL-24 R/B 4.4 20:08:54 10° N 20:12:57 59° WNW 20:16:37 10° SSW
BREEZE-M DEB (TANK) 2.4 20:10:51 10° W 20:14:38 45° NNW 20:15:10 37° NNE
ATLAS CENTAUR R/B 3.8 20:14:24 10° NNE 20:15:22 11° NNE 20:16:19 10° NE
STARLINK-1138 4.4 20:12:02 10° NW 20:16:00 42° NNE 20:17:28 30° ENE
STARLINK-1234 2.8 20:16:49 10° WNW 20:19:47 80° NNW 20:19:47 80° NNW
STARLINK-1233 3.0 20:16:47 10° NW 20:19:55 64° NNE 20:19:56 64° NNE
Cosmos 921 Rocket 3.0 20:15:54 10° NNW 20:20:05 74° WSW 20:21:45 35° S
STARLINK-1212 3.0 20:17:15 10° NW 20:20:21 64° NNE 20:20:21 64° NNE
STARLINK-1105 3.0 20:17:42 10° NW 20:20:48 65° NNE 20:20:48 65° NNE
STARLINK-1143 4.4 20:17:00 10° NW 20:21:00 44° NNE 20:22:15 33° ENE
STARLINK-1209 2.8 20:17:57 10° WNW 20:20:51 79° NW 20:20:51 79° NW
STARLINK-1206 3.0 20:18:11 10° NW 20:21:13 65° NNE 20:21:13 65° NNE
STARLINK-1247 3.0 20:18:37 10° NW 20:21:39 65° NNE 20:21:39 65° NNE
STARLINK-1227 3.0 20:19:02 10° NW 20:22:06 66° NNE 20:22:06 66° NNE
STARLINK-1218 3.0 20:19:32 10° NW 20:22:31 66° N 20:22:31 66° N
Cosmos 962 Rocket 4.4 20:16:37 10° N 20:22:49 86° W 20:27:13 20° S
STARLINK-1226 3.0 20:19:58 10° NW 20:22:58 66° N 20:22:58 66° N
STARLINK-1254 3.0 20:20:23 10° NW 20:23:24 67° N 20:23:24 67° N
STARLINK-1215 3.0 20:20:53 10° NW 20:23:49 66° N 20:23:49 66° N
STARLINK-1231 3.1 20:21:19 10° NW 20:24:15 66° N 20:24:15 66° N
Cosmos 2181 Rocket 3.9 20:20:34 20° S 20:24:58 64° E 20:31:03 10° NNE
STARLINK-1232 3.1 20:22:14 10° NW 20:25:08 66° N 20:25:08 66° N
Cosmos 407 Rocket 4.2 20:20:22 10° SW 20:25:23 53° WNW 20:30:25 10° NNE
STARLINK-1217 3.1 20:22:40 10° NW 20:25:33 66° N 20:25:33 66° N
STARLINK-1241 4.3 20:22:01 10° NW 20:26:02 46° NNE 20:27:04 37° ENE
SL-8 Rocket 4.0 20:19:48 10° N 20:26:07 69° E 20:29:12 32° SSE
STARLINK-1208 3.1 20:23:06 10° NW 20:26:00 67° N 20:26:00 67° N
Cosmos 676 Rocket 3.9 20:21:08 10° SSW 20:26:25 83° ESE 20:31:42 10° NNE
BREEZE-M DEB (TANK) 3.3 20:21:48 10° WNW 20:26:26 54° SSW 20:26:31 54° SSW
STARLINK-1229 3.1 20:23:34 10° NW 20:26:25 65° NNW 20:26:25 65° NNW
STARLINK-1271 3.1 20:24:01 10° WNW 20:26:52 65° NNW 20:26:52 65° NNW
STARLINK-1270 3.1 20:24:29 10° WNW 20:27:17 64° NNW 20:27:17 64° NNW
ERS-1 Rocket 3.8 20:27:20 31° ENE 20:27:54 32° ENE 20:32:18 10° N
STARLINK-1154 3.2 20:24:56 10° WNW 20:27:43 64° NNW 20:27:43 64° NNW
STARLINK-1197 3.2 20:25:50 10° WNW 20:28:35 63° NNW 20:28:35 63° NNW
STARLINK-1189 3.2 20:26:16 10° WNW 20:29:01 63° NNW 20:29:01 63° NNW
Cosmos 1812 Rocket 3.8 20:29:45 48° E 20:29:45 48° E 20:33:43 10° NNE
Cosmos 1656 4.5 20:24:19 10° NNW 20:29:34 36° NE 20:30:57 31° E
STARLINK-1198 3.2 20:26:44 10° WNW 20:29:27 62° NNW 20:29:27 62° NNW
STARLINK-1188 3.3 20:27:11 10° WNW 20:29:53 61° NW 20:29:53 61° NW
Cosmos 1461 3.7 20:25:55 10° NW 20:30:20 50° WSW 20:32:00 33° S
Cosmos 1980 Rocket 4.1 20:27:24 10° N 20:30:42 16° NE 20:32:34 14° ENE
STARLINK-1235 3.3 20:27:49 10° WNW 20:30:32 63° WNW 20:30:32 63° WNW
STARLINK-1239 4.2 20:26:57 10° NW 20:30:59 48° NNE 20:31:48 42° ENE
STARLINK-1187 3.3 20:28:15 10° WNW 20:30:59 63° NW 20:30:59 63° NW
STARLINK-29 3.3 20:28:36 10° WSW 20:31:20 60° W 20:31:20 60° W
STARLINK-1199 3.3 20:29:07 10° WNW 20:31:48 60° NW 20:31:48 60° NW
Cosmos 1892 3.6 20:29:01 10° N 20:32:00 35° NE 20:32:00 35° NE
STARLINK-1191 3.4 20:29:35 10° WNW 20:32:15 60° NW 20:32:15 60° NW
STARLINK-1210 3.4 20:30:01 10° WNW 20:32:40 59° NW 20:32:40 59° NW
STARLINK-1221 3.4 20:30:29 10° WNW 20:33:07 58° NW 20:33:07 58° NW
SPOT 5 3.9 20:34:13 25° ENE 20:34:13 25° ENE 20:37:25 10° N
STARLINK-1219 3.4 20:30:55 10° WNW 20:33:32 58° NW 20:33:32 58° NW
STARLINK-60 4.2 20:30:59 10° W 20:34:08 42° NNW 20:34:55 34° NNE
STARLINK-1222 3.5 20:31:22 10° WNW 20:33:58 57° NW 20:33:58 57° NW
STARLINK-1211 3.5 20:31:50 10° WNW 20:34:24 56° NW 20:34:24 56° NW
GRACE-FO 1 4.5 20:35:04 80° S 20:35:15 89° W 20:39:00 10° N
STARLINK-1214 3.5 20:32:16 10° WNW 20:34:50 55° NW 20:34:50 55° NW
GRACE-FO 2 4.5 20:35:27 80° S 20:35:39 88° W 20:39:22 10° N
STARLINK-1245 3.6 20:32:46 10° WNW 20:35:16 53° NW 20:35:16 53° NW
STARLINK-1240 4.1 20:31:56 10° NW 20:36:00 51° NNE 20:36:36 46° NE
STARLINK-1238 3.6 20:33:11 10° WNW 20:35:43 54° NW 20:35:43 54° NW
STARLINK-1205 3.7 20:34:07 10° WNW 20:36:34 51° NW 20:36:34 51° NW
STARLINK-1204 3.7 20:34:34 10° WNW 20:36:59 50° NW 20:36:59 50° NW
Cosmos 220 Rocket 3.9 20:33:38 10° NNW 20:37:58 66° ENE 20:38:14 64° E
Cosmos 2366 rocket 3.9 20:32:51 10° N 20:39:00 69° E 20:41:06 42° SSE
STARLINK-1216 4.0 20:36:56 10° NW 20:41:00 54° NNE 20:41:24 51° NE
Terra 3.1 20:42:27 25° ENE 20:42:27 25° ENE 20:46:04 10° N
ATLAS 5 CENTAUR R/B 2.5 20:38:32 10° WSW 20:42:38 49° NW 20:47:15 10° NNE
Cosmos 1825 4.3 20:39:44 10° NNE 20:41:04 16° NE 20:41:04 16° NE
Abrixas rocket 3.7 20:41:21 10° WNW 20:43:05 31° W 20:43:05 31° W
Cosmos 1959 Rocket 4.4 20:39:08 10° N 20:45:29 79° E 20:47:43 43° SSE
STARLINK-1237 3.9 20:41:54 10° NW 20:46:00 57° NNE 20:46:09 56° NE
Cosmos 1954 Rocket 4.3 20:44:19 10° SSW 20:49:31 67° WNW 20:54:44 10° NNE
STARLINK-1202 3.9 20:46:53 10° NW 20:50:57 60° NNE 20:50:57 60° NNE
Cosmos 2151 4.3 20:47:10 10° N 20:49:52 29° NE 20:49:52 29° NE
Cosmos 2058 2.9 20:46:58 10° N 20:50:47 74° NNE 20:50:47 74° NNE
Cosmos 192 4.2 20:46:41 10° NNW 20:51:41 80° ENE 20:52:09 71° SE
SPOT 1/Viking Rocket 3.5 20:52:37 61° ESE 20:53:13 67° ENE 20:58:25 10° N
Cosmos 1300 3.8 20:52:16 28° SW 20:53:45 42° WNW 20:57:25 10° N
RESURS DK-1 3.7 20:50:11 10° N 20:53:17 29° NE 20:53:17 29° NE
Cosmos 1741 Rocket 4.2 20:54:59 52° ENE 20:54:59 52° ENE 20:59:34 10° NNE
FALCON 9 DEB 4.4 20:51:13 10° WSW 20:53:39 39° W 20:53:39 39° W
SL-4 R/B 3.1 20:55:10 10° WNW 20:58:16 34° N 20:58:16 34° N
Cosmos 1076 Rocket 3.5 20:54:53 10° N 20:59:02 79° WNW 20:59:02 79° WNW
In-Cosmos 22 Rocket 4.3 20:54:51 10° NNW 21:00:43 77° W 21:02:23 48° S
STARLINK-1246 4.0 20:56:50 10° WNW 21:00:32 61° NNW 21:00:32 61° NNW
STARLINK-1203 3.9 20:57:41 10° WNW 21:01:25 65° NNW 21:01:25 65° NNW
STARLINK-1224 4.1 21:01:48 10° WNW 21:05:18 58° NNW 21:05:18 58° NNW
Cosmos 1763 Rocket 3.3 21:05:19 10° NNW 21:10:29 80° ENE 21:10:29 80° ENE
Cosmos 1833 Rocket 4.3 21:13:43 21° NE 21:13:43 21° NE 21:15:44 10° NE
STARLINK-1225 4.3 21:06:48 10° WNW 21:10:06 54° NW 21:10:06 54° NW
Cosmos 489 Rocket 4.4 21:07:57 10° NNW 21:14:09 66° ENE 21:14:41 63° E
STARLINK-1230 4.5 21:11:47 10° WNW 21:14:53 49° NW 21:14:53 49° NW
BREEZE M DEB (TANK) 3.4 21:12:34 10° WSW 21:16:25 89° NNW 21:29:24 10° ENE
Cosmos-2242 4.4 21:21:21 31° NNE 21:21:21 31° NNE 21:23:43 10° NNE
COSMOS 2406 3.4 21:21:00 56° NE 21:21:00 56° NE 21:25:36 10° NNE
Cosmos 540 Rocket 4.0 21:14:54 10° NNW 21:19:20 46° NE 21:19:20 46° NE
Cosmos 1821 Rocket 4.1 21:14:03 10° N 21:20:22 60° ENE 21:20:35 60° E
Meteor 2-10 Rocket 3.9 21:23:21 56° NE 21:23:21 56° NE 21:27:43 10° NNE
SL-08 R/B 4.4 21:18:04 10° N 21:24:13 82° W 21:25:05 67° SSW
Iridium 4 Rocket 3.9 21:21:09 10° NNW 21:24:45 44° WNW 21:24:45 44° WNW
USA 234 3.2 21:20:09 10° NE 21:26:44 87° NW 21:33:17 10° SW
USA 32 4.1 21:26:24 10° N 21:31:15 75° NNW 21:31:15 75° NNW
Cosmos 1850 Rocket 4.4 21:39:34 60° WNW 21:39:39 60° WNW 21:44:48 10° NNE
CZ-4C R/B 3.4 21:33:39 10° NNW 21:40:28 50° NE 21:42:00 44° ENE
Cosmos 2369 3.9 21:35:04 10° NNW 21:40:06 62° NNE 21:40:06 62° NNE
Cosmos 1697 Rocket 2.9 21:40:48 10° NNW 21:45:47 65° N 21:45:47 65° N
COSMOS 2455 4.5 21:42:35 10° WNW 21:47:09 23° WSW 21:48:21 21° WSW
Resurs 01 Rocket 4.4 21:46:15 10° WSW 21:47:45 11° W 21:49:15 10° WNW
Cosmos 841 Rocket 3.9 21:42:34 10° NNW 21:46:53 60° NNW 21:46:53 60° NNW
Mayak 1.3 21:47:02 10° NNE 21:47:46 15° NNE 21:47:46 15° NNE
ATLAS CENTAUR R/B 3.6 21:51:28 10° NNW 21:52:56 21° NNW 21:52:56 21° NNW
SL-16 R/B 3.9 21:59:55 10° N 22:04:13 23° NE 22:04:13 23° NE
ERS-1 Rocket 4.3 22:07:19 34° WNW 22:07:19 34° WNW 22:11:14 10° NNW
Meteor 2-3 Rocket 4.3 22:06:32 10° N 22:11:01 56° N 22:11:01 56° N
Cosmos 2322 Rocket 3.9 22:08:25 10° N 22:12:34 22° NE 22:12:34 22° NE
Cosmos 1980 Rocket 2.9 22:10:08 10° NNW 22:14:19 50° N 22:14:19 50° N
Terra 3.4 22:21:20 31° NW 22:21:20 31° NW 22:24:14 10° NNW
Cosmos 2082 Rocket 3.4 22:45:47 36° NNE 22:45:47 36° NNE 22:49:08 10° NNE
Cosmos 1833 Rocket 3.9 22:55:21 38° NW 22:55:21 38° NW 22:59:50 10° NNE
Cosmos 2344 4.3 22:46:55 10° NW 22:56:37 87° SW 22:58:33 69° SSE
USA 234 4.3 23:03:18 10° NE 23:09:21 42° NNW 23:15:23 10° W
Mayak 1.8 23:23:38 10° NNW 23:24:21 13° NNW 23:24:21 13° NNW
CZ-4C R/B 3.7 23:22:11 10° NW 23:27:10 41° WNW 23:27:10 41° WNW
SL-16 R/B 3.8 23:43:24 10° NNW 23:46:05 29° NW 23:46:05 29° NW
Cosmos 2360 Rocket 3.7 23:47:02 10° NNW 23:50:15 33° N 23:50:15 33° N
